Home > Weather > Lagos > Past weeks

Flag for Nigeria Weather for the Past 2 Weeks in Lagos, Nigeria

Now
79 °F

Haze.


Feels Like: 83 °F
Forecast: 69 / 99 °F
Wind: No wind

Location: Lagos / Ikeja

Current Time: Feb 10, 2016 at 4:55:53 AM

Latest Report: Feb 10, 2016 at 4:00 AM


Visibility: 2 mi

Pressure: 29.92 "Hg

Humidity: 94%

Dew point: 77 °F

Location of LagosLocation

Historic Weather in Lagos — Graph

°F

Lagos Temperature Yesterday

Maximum temperature yesterday: 97 °F (at 2:00 PM)
Minimum temperature yesterday: 79 °F (at 4:00 AM)
Average temperature yesterday: 85 °F

High & Low Weather Summary for the Past Weeks

 TemperatureHumidityPressure
High97 °F (Feb 5, 3:00 PM)100% (Feb 2, 3:00 AM)30.07 "Hg (Feb 2, 3:00 AM)
Low70 °F (Jan 27, 6:00 AM)21% (Jan 28, 2:00 PM)29.80 "Hg (Feb 2, 4:00 PM)
Average82 °F68%29.94 "Hg
* Reported Jan 26 3:00 AM — Feb 10 3:00 AM, Lagos, Weather by CustomWeather, © 2016

Note: Actual official high and low records may vary slightly from our data, if they occured in-between our weather recording intervals... More about our weather records

Advertising

Lagos Weather History for the Previous 24 Hours

 ConditionsComfort  
Time TempWeatherWind HumidityBarometerVisibility
3:00 AM
Wed, Feb 10
81 °FHaze.2 mph89%29.95 "Hg2 mi
2:00 AM81 °FHaze.2 mph89%29.95 "Hg2 mi
1:00 AM81 °FHaze.No wind89%29.98 "Hg2 mi
12:00 AM81 °FHaze.2 mph89%29.98 "Hg2 mi
11:00 PM
Tue, Feb 9
81 °FHaze.3 mph89%29.98 "Hg2 mi
10:00 PM82 °FHaze.3 mph84%29.98 "Hg2 mi
9:00 PM82 °FHaze.3 mph84%29.95 "Hg2 mi
8:00 PM82 °FHaze.3 mph84%29.92 "Hg1 mi
7:00 PM84 °FHaze.5 mph74%29.89 "Hg1 mi
6:00 PM88 °FHaze.6 mph59%29.89 "Hg1 mi
5:00 PM95 °FHaze.8 mph30%29.86 "Hg1 mi
4:00 PM97 °FHaze.5 mph27%29.86 "Hg1 mi
3:00 PM97 °FHaze.8 mph30%29.89 "Hg2 mi
2:00 PM97 °FHaze.7 mph34%29.92 "Hg2 mi
1:00 PM95 °FHaze.10 mph39%29.95 "Hg2 mi
12:00 PM91 °FHaze.5 mph59%30.01 "Hg2 mi
11:00 AM88 °FScattered clouds.5 mph66%30.01 "Hg2 mi
10:00 AM86 °FScattered clouds.6 mph75%30.04 "Hg2 mi
9:00 AM82 °FHaze.5 mph84%30.01 "Hg1 mi
8:00 AM79 °FHaze.5 mph94%29.98 "Hg1 mi
7:00 AM79 °FHaze.2 mph94%29.98 "Hg1 mi
6:00 AM79 °FFog.3 mph94%29.95 "Hg2 mi
5:00 AM79 °FHaze.2 mph94%29.95 "Hg2 mi
4:00 AM79 °FHaze.3 mph94%29.95 "Hg2 mi
Weather by CustomWeather, © 2016

See weather overviewHow to use our weather pages